Regional Weather Roundup
Issued by NWS

Home | Current Version | Previous Version | Graphics & Text | Print | Product List | Glossary On
Versions: 1 2 3 4 5 6 7 8 9 10 11 12 13 14 15 16 17 18 19 20 21 22 23 24 25 26 27 28 29 30 31 32 33 34 35 36 37 38 39 40 41 42 43 44 45 46 47 48 49 50
000
ASUS44 KMEG 261110
RWRTN
TENNESSEE HOURLY STATE WEATHER ROUNDUP
NATIONAL WEATHER SERVICE MEMPHIS TN
600 AM CDT THU MAY 26 2016

TNZ002-004-019-021-049-052-054-088>092-261200-
WEST TENNESSEE

CITY           SKY/WX    TMP DP  RH WIND       PRES   REMARKS
MEMPHIS INTL   MOCLDY    74  68  81 S8        30.04R
NWS MEMPHIS      N/A     71 N/A N/A MISG        N/A
JACKSON        CLOUDY    71  65  81 S12       30.06R
DYERSBURG      CLOUDY    66  63  88 S7        30.03S
UNION CITY     MOCLDY    66  64  94 S5        30.03S
PARIS          MOCLDY    66  61  82 S8        30.06S
LEXINGTON      CLOUDY    64  63  94 S3        30.07S
$$

TNZ008-025-027-028-033-062-065-066-261200-
NORTH MIDDLE TENNESSEE

CITY           SKY/WX    TMP DP  RH WIND       PRES   REMARKS
NASHVILLE      MOCLDY    66  62  87 S5        30.11S
CLARKSVILLE    PTCLDY    62  61  96 SE5       30.07S
SMYRNA         PTCLDY    66  65  97 S6        30.12S
COOKEVILLE     MOCLDY    64  64 100 CALM      30.14S
CROSSVILLE     CLOUDY    63  61  93 SE3       30.21S
$$

TNZ061-075-076-078-094-096-097-261200-
SOUTH MIDDLE TENNESSEE

CITY           SKY/WX    TMP DP  RH WIND       PRES   REMARKS
FAYETTEVILLE   MOCLDY    66  61  82 S6        30.15S
TULLAHOMA      PTCLDY    63  63 100 CALM      30.17R
WINCHESTER     CLEAR     64  59  82 CALM      30.17R
MCMINNVILLE    PTCLDY    64  64 100 CALM      30.16R
COLUMBIA       CLEAR     70  70 100 CALM      30.10R
SHELBYVILLE    MOCLDY    64  63  94 E6        30.15S
$$

TNZ017-018-042-046-047-261200-
NORTHEAST TENNESSEE

CITY           SKY/WX    TMP DP  RH WIND       PRES   REMARKS
TRI CITIES     CLOUDY    64  62  93 CALM      30.20R FOG
$$

TNZ012-013-036-069-073-074-261200-
CENTRAL EAST TENNESSEE

CITY           SKY/WX    TMP DP  RH WIND       PRES   REMARKS
KNOXVILLE      LGT RAIN  67  60  78 S3        30.18R
OAK RIDGE      CLOUDY    69  60  73 VRB3      30.19R
GATLINBURG     MOCLDY    63  59  88 CALM      30.18R
$$

TNZ083-085-099-261200-
SOUTHEAST TENNESSEE

CITY           SKY/WX    TMP DP  RH WIND       PRES   REMARKS
CHATTANOOGA    LGT RAIN  68  64  87 N5        30.19R
$$

SKY/WX REPORTED AS FAIR MEANS FEW OR NO CLOUDS BELOW
12 THOUSAND FEET.




USA.gov is the U.S. government's official web portal to all federal, state and local government web resources and services.